This is the latest recevied weather packets stored in our database for station/object OE6ATD-13. If no packets are shown the sender has not sent any weather packets the latest 10 day(s).
| Time | Temp. | Humidity | Pressure | Rain* | Wind** | Luminosity | Snow |
|---|---|---|---|---|---|---|---|
| 1788117626 | 21.11° C | 74% | 1015.9 hPa | 0 mm | - | 0 W/m² | - |
| 1788117022 | 21.11° C | 74% | 1015.9 hPa | 0 mm | - | 0 W/m² | - |
| 1788116418 | 21.67° C | 73% | 1015.9 hPa | 0 mm | - | 0 W/m² | - |
| 1788115829 | 22.22° C | 72% | 1015.8 hPa | 0 mm | - | 0 W/m² | - |
| 1788115225 | 22.22° C | 68% | 1015.6 hPa | 0 mm | - | 0 W/m² | - |
| 1788114630 | 22.78° C | 67% | 1015.6 hPa | 0 mm | - | 0 W/m² | - |
| 1788114016 | 23.33° C | 64% | 1015.5 hPa | 0 mm | - | 0 W/m² | - |
| 1788113427 | 23.89° C | 62% | 1015.3 hPa | 0 mm | - | 0 W/m² | - |
| 1788112823 | 24.44° C | 61% | 1015.2 hPa | 0 mm | - | 0 W/m² | - |
| 1788112219 | 25.56° C | 58% | 1015.1 hPa | 0 mm | - | 0 W/m² | - |
| 1788111630 | 26.11° C | 55% | 1015.1 hPa | 0 mm | - | 1 W/m² | - |
| 1788111026 | 27.22° C | 49% | 1015 hPa | 0 mm | - | 5 W/m² | - |
| 1788110425 | 28.33° C | 44% | 1015 hPa | 0 mm | - | 14 W/m² | - |
| 1788109820 | 29.44° C | 42% | 1015 hPa | 0 mm | - | 29 W/m² | - |
| 1788109216 | 30° C | 42% | 1015.1 hPa | 0 mm | - | 40 W/m² | - |
| 1788108627 | 30.56° C | 42% | 1015.1 hPa | 0 mm | - | 52 W/m² | - |
| 1788108023 | 30.56° C | 41% | 1015.1 hPa | 0 mm | - | 64 W/m² | - |
| 1788107418 | 30.56° C | 40% | 1015.1 hPa | 0 mm | - | 74 W/m² | - |
| 1788106830 | 30.56° C | 40% | 1015.2 hPa | 0 mm | - | 68 W/m² | - |
| 1788106225 | 30.56° C | 40% | 1015.3 hPa | 0 mm | - | 80 W/m² | - |
| 1788105624 | 31.11° C | 39% | 1015.2 hPa | 0 mm | - | 96 W/m² | - |
| 1788105019 | 30.56° C | 40% | 1015.2 hPa | 0 mm | - | 92 W/m² | - |
| 1788104415 | 31.11° C | 37% | 1015.3 hPa | 0 mm | - | 100 W/m² | - |
| 1788103826 | 31.67° C | 36% | 1015.4 hPa | 0 mm | - | 147 W/m² | - |
| 1788103222 | 31.67° C | 35% | 1015.3 hPa | 0 mm | - | 189 W/m² | - |
* Rain latest hour (hover to see other rain measurements)
** Current wind speed in m/s (hover to see current wind gust speed)